Location: Clatteringshaws Loch
(55.0508°N, 4.2860°W)
Time: 01:34:03
(UTC+01:00)

Amateur Radio Satellites - All Passes

Search period start: 25 October 2014 01:04
Search period end: 26 October 2014 01:04
Location: Clatteringshaws Loch, 55.0508°N, 4.2860°W

Satellite Date Start Highest point End Downlink Frequencies (MHz)
Time Altitude Azimuth
JAS-1B 25 Oct 01:14:17 01:17:31 14° 82° (E) 01:20:58 435.800 - 435.900 CW/SSB
MaSat-1 25 Oct 01:15:06 01:19:03 83° 126° (SE) 01:22:34 437.345 MHz
AO-Echo 25 Oct 01:53:55 01:56:38 14° 83° (E) 01:59:20 ?
Oscar 16 25 Oct 01:56:32 02:00:35 23° 90° (E) 02:04:35 437.025 USB, Beacon 2401.1428
Uribyol 2 25 Oct 02:16:18 02:19:34 16° 86° (E) 02:22:48 436.500 FM
ITAMSAT 1 25 Oct 02:22:11 02:25:37 17° 86° (E) 02:29:02 435.822 SSB
Gurwin Techsat 1B 25 Oct 02:41:23 02:44:22 15° 84° (E) 02:47:21 435.225 FM
Oscar 19 25 Oct 02:49:31 02:54:34 54° 101° (E) 02:59:35 437.125 CW, 437.150 USB
MaSat-1 25 Oct 02:52:15 02:55:03 20° 324° (NW) 02:57:38 437.345 MHz
TMSAT-1 25 Oct 02:52:50 02:55:39 14° 83° (E) 02:58:26 436.925 FM
RS-15 25 Oct 02:53:27 03:04:07 54° 349° (N) 03:15:01 29.354 - 29.394 USB, Beacon 29.352 USB
OPAL 25 Oct 02:56:17 02:58:39 13° 41° (NE) 03:01:01 ?
JAS-1B 25 Oct 03:03:06 03:09:23 61° 103° (ESE) 03:16:47 435.800 - 435.900 CW/SSB
AO-27 25 Oct 03:06:58 03:11:50 37° 96° (E) 03:16:39 436.795 MHz FM
AO-Echo 25 Oct 03:31:04 03:36:22 69° 103° (ESE) 03:41:41 ?
Oscar 16 25 Oct 03:35:20 03:40:28 71° 290° (WNW) 03:45:33 437.025 USB, Beacon 2401.1428
Sapphire 25 Oct 03:45:54 03:49:19 17° 106° (ESE) 03:52:44 437.095 MHz 1200 baud AX-25 AFSK
Uribyol 2 25 Oct 03:54:37 03:59:53 83° 106° (ESE) 04:05:06 436.500 FM
ITAMSAT 1 25 Oct 04:00:37 04:05:55 86° 107° (ESE) 04:11:09 435.822 SSB
PCSat 25 Oct 04:07:11 04:11:34 26° 112° (ESE) 04:15:58 145.825 MHz
Gurwin Techsat 1B 25 Oct 04:19:56 04:25:18 75° 104° (ESE) 04:30:37 435.225 FM
Oscar 19 25 Oct 04:29:14 04:33:44 32° 301° (WNW) 04:38:13 437.125 CW, 437.150 USB
AO-7 25 Oct 04:30:48 04:37:39 27° 89° (E) 04:44:27 29.400 - 29.500 MHz
TMSAT-1 25 Oct 04:31:13 04:36:34 72° 104° (ESE) 04:41:52 436.925 FM
OPAL 25 Oct 04:31:36 04:36:31 48° 62° (ENE) 04:41:23 ?
STRAND 1 25 Oct 04:40:51 04:42:51 12° 42° (NE) 04:44:51 ?
AO-27 25 Oct 04:46:29 04:51:30 46° 296° (WNW) 04:56:28 436.795 MHz FM
JAS-2 25 Oct 04:48:35 04:52:32 15° 76° (ENE) 04:56:30 435.800 - 435.900 CW/SSB, 435.910 FM
JAS-1B 25 Oct 04:54:17 04:59:56 38° 302° (WNW) 05:06:25 435.800 - 435.900 CW/SSB
RS-15 25 Oct 05:07:46 05:18:38 59° 22° (NNE) 05:29:50 29.354 - 29.394 USB, Beacon 29.352 USB
AO-Echo 25 Oct 05:10:22 05:14:46 28° 303° (WNW) 05:19:12 ?
Oscar 16 25 Oct 05:15:47 05:19:02 17° 311° (NW) 05:22:17 437.025 USB, Beacon 2401.1428
Uosat F 25 Oct 05:16:11 05:20:47 34° 95° (E) 05:25:21 435.120 FM
Sapphire 25 Oct 05:26:30 05:31:54 74° 127° (SE) 05:37:21 437.095 MHz 1200 baud AX-25 AFSK
Uribyol 2 25 Oct 05:34:48 05:38:51 23° 307° (NW) 05:42:52 436.500 FM
ITAMSAT 1 25 Oct 05:40:52 05:44:51 22° 308° (NW) 05:48:49 435.822 SSB
PCSat 25 Oct 05:49:03 05:54:29 80° 313° (NW) 05:59:58 145.825 MHz
Gurwin Techsat 1B 25 Oct 06:00:31 06:04:50 26° 305° (NW) 06:09:08 435.225 FM
OPAL 25 Oct 06:10:54 06:15:34 35° 262° (W) 06:20:13 ?
TMSAT-1 25 Oct 06:11:43 06:16:05 27° 305° (NW) 06:20:26 436.925 FM
STRAND 1 25 Oct 06:16:01 06:20:54 46° 64° (ENE) 06:25:50 ?
AO-7 25 Oct 06:23:12 06:31:34 88° 112° (ESE) 06:39:56 29.400 - 29.500 MHz
AO-27 25 Oct 06:27:42 06:29:52 13° 318° (NW) 06:32:01 436.795 MHz FM
Hamsat 25 Oct 06:27:54 06:31:27 26° 93° (E) 06:34:59 145.90 MHz
JAS-2 25 Oct 06:31:47 06:39:17 53° 98° (E) 06:46:56 435.800 - 435.900 CW/SSB, 435.910 FM
JAS-1B 25 Oct 06:47:00 06:49:05 12° 325° (NW) 06:51:14 435.800 - 435.900 CW/SSB
Uosat F 25 Oct 06:54:54 06:59:46 48° 296° (WNW) 07:04:36 435.120 FM
Sapphire 25 Oct 07:10:44 07:15:47 37° 330° (NNW) 07:20:51 437.095 MHz 1200 baud AX-25 AFSK
RS-15 25 Oct 07:20:41 07:31:43 76° 231° (SW) 07:43:10 29.354 - 29.394 USB, Beacon 29.352 USB
Saudisat 1A 25 Oct 07:28:14 07:30:06 13° 111° (ESE) 07:31:59 436.775 MHz
PCSat 25 Oct 07:33:51 07:38:40 31° 337° (NNW) 07:43:30 145.825 MHz
SO-67 25 Oct 07:39:55 07:42:31 20° 92° (E) 07:45:06 435.3500 MHz FM
MaSat-1 25 Oct 07:43:53 07:46:03 18° 35° (NE) 07:48:03 437.345 MHz
STRAND 1 25 Oct 07:55:31 08:00:14 36° 264° (W) 08:05:01 ?
Hamsat 25 Oct 08:03:35 08:07:37 46° 292° (WNW) 08:11:38 145.90 MHz
AO-7 25 Oct 08:16:27 08:23:39 35° 316° (NW) 08:30:52 29.400 - 29.500 MHz
JAS-2 25 Oct 08:17:02 08:24:18 51° 298° (WNW) 08:31:49 435.800 - 435.900 CW/SSB, 435.910 FM
Uosat F 25 Oct 08:35:24 08:37:28 13° 317° (NW) 08:39:33 435.120 FM
Sapphire 25 Oct 08:56:19 09:00:39 23° 356° (N) 09:05:00 437.095 MHz 1200 baud AX-25 AFSK
HO-68 25 Oct 08:57:57 09:03:07 21° 85° (E) 09:08:15 435.675 MHz FM
Saudisat 1A 25 Oct 09:04:31 09:08:51 63° 131° (SE) 09:13:14 436.775 MHz
SO-67 25 Oct 09:12:24 09:15:42 43° 291° (WNW) 09:19:00 435.3500 MHz FM
MaSat-1 25 Oct 09:19:12 09:21:57 48° 239° (WSW) 09:24:26 437.345 MHz
PCSat 25 Oct 09:19:20 09:23:40 23° 2° (N) 09:27:59 145.825 MHz
RS-15 25 Oct 09:33:42 09:42:24 28° 256° (WSW) 09:51:23 29.354 - 29.394 USB, Beacon 29.352 USB
UKube-1 25 Oct 09:39:33 09:40:55 11° 84° (E) 09:42:16 145.840 MHz, 145.915 MHz
JAS-2 25 Oct 10:02:57 10:07:51 19° 321° (NW) 10:12:55 435.800 - 435.900 CW/SSB, 435.910 FM
AO-7 25 Oct 10:09:22 10:14:10 17° 342° (NNW) 10:18:58 29.400 - 29.500 MHz
FUNcube-1 25 Oct 10:19:02 10:20:40 12° 84° (E) 10:22:18 145.950 - 145.970 MHz USB
Oscar 11 25 Oct 10:19:15 10:22:47 24° 92° (E) 10:26:18 145.825 FM, Beacon 2401.500 USB
Sapphire 25 Oct 10:40:55 10:45:41 30° 21° (NNE) 10:50:27 437.095 MHz 1200 baud AX-25 AFSK
Saudisat 1A 25 Oct 10:44:33 10:48:41 38° 333° (NNW) 10:52:52 436.775 MHz
HO-68 25 Oct 10:44:47 10:52:02 77° 107° (ESE) 10:59:15 435.675 MHz FM
PCSat 25 Oct 11:03:34 11:08:34 35° 28° (NNE) 11:13:33 145.825 MHz
ZACube-1 25 Oct 11:09:01 11:12:55 32° 95° (E) 11:16:43 437.345 MHz
UKube-1 25 Oct 11:13:33 11:17:57 71° 104° (ESE) 11:22:18 145.840 MHz, 145.915 MHz
Oscar 16 25 Oct 11:43:50 11:46:55 16° 48° (NE) 11:50:00 437.025 USB, Beacon 2401.1428
FUNcube-1 25 Oct 11:53:32 11:57:52 78° 104° (ESE) 12:02:05 145.950 - 145.970 MHz USB
Oscar 11 25 Oct 11:55:03 11:59:16 52° 292° (WNW) 12:03:27 145.825 FM, Beacon 2401.500 USB
AO-7 25 Oct 11:59:42 12:03:52 15° 9° (N) 12:08:03 29.400 - 29.500 MHz
Uribyol 2 25 Oct 12:04:57 12:07:18 13° 43° (NE) 12:09:40 436.500 FM
JAS-1B 25 Oct 12:08:35 12:12:56 23° 49° (NE) 12:17:20 435.800 - 435.900 CW/SSB
ITAMSAT 1 25 Oct 12:10:51 12:13:22 14° 44° (NE) 12:15:54 435.822 SSB
KITSAT 1 25 Oct 12:24:05 12:31:07 35° 112° (ESE) 12:38:11 435.175 FM
Sapphire 25 Oct 12:24:29 12:29:57 74° 45° (NE) 12:35:24 437.095 MHz 1200 baud AX-25 AFSK
Saudisat 1A 25 Oct 12:25:40 12:29:17 24° 357° (N) 12:32:55 436.775 MHz
HO-68 25 Oct 12:32:57 12:39:16 34° 310° (NW) 12:45:33 435.675 MHz FM
Gurwin Techsat 1B 25 Oct 12:33:04 12:35:10 12° 42° (NE) 12:37:17 435.225 FM
Oscar 19 25 Oct 12:35:16 12:39:47 32° 59° (ENE) 12:44:18 437.125 CW, 437.150 USB
TMSAT-1 25 Oct 12:44:22 12:46:15 12° 41° (NE) 12:48:07 436.925 FM
ZACube-1 25 Oct 12:45:24 12:49:25 38° 295° (WNW) 12:53:20 437.345 MHz
PCSat 25 Oct 12:47:04 12:52:32 81° 231° (SW) 12:57:58 145.825 MHz
UKube-1 25 Oct 12:50:26 12:53:44 21° 304° (NW) 12:57:01 145.840 MHz, 145.915 MHz
AO-27 25 Oct 12:54:22 12:58:31 25° 54° (NE) 13:02:41 436.795 MHz FM
SO-50 25 Oct 13:05:52 13:09:07 20° 115° (ESE) 13:12:26 436.795 FM
AO-Echo 25 Oct 13:13:14 13:17:43 35° 60° (ENE) 13:22:22 ?
Oscar 16 25 Oct 13:20:19 13:25:26 65° 69° (ENE) 13:30:33 437.025 USB, Beacon 2401.1428
FUNcube-1 25 Oct 13:30:46 13:33:46 19° 305° (NW) 13:36:43 145.950 - 145.970 MHz USB
Oscar 11 25 Oct 13:33:25 13:34:33 11° 312° (NW) 13:35:41 145.825 FM, Beacon 2401.500 USB
Uribyol 2 25 Oct 13:40:40 13:45:41 49° 64° (ENE) 13:50:44 436.500 FM
ITAMSAT 1 25 Oct 13:46:46 13:51:49 51° 65° (ENE) 13:56:53 435.822 SSB
AO-7 25 Oct 13:47:33 13:54:01 27° 36° (NE) 14:00:29 29.400 - 29.500 MHz
JAS-1B 25 Oct 13:57:15 14:03:03 85° 253° (WSW) 14:08:50 435.800 - 435.900 CW/SSB
Saudisat 1A 25 Oct 14:05:58 14:09:59 32° 21° (NNE) 14:13:59 436.775 MHz
Sapphire 25 Oct 14:08:23 14:12:59 29° 247° (WSW) 14:17:34 437.095 MHz 1200 baud AX-25 AFSK
Gurwin Techsat 1B 25 Oct 14:08:56 14:13:58 45° 63° (ENE) 14:19:01 435.225 FM
Oscar 19 25 Oct 14:13:54 14:18:57 54° 259° (W) 14:24:01 437.125 CW, 437.150 USB
KITSAT 1 25 Oct 14:17:46 14:25:53 84° 315° (NW) 14:34:02 435.175 FM
TMSAT-1 25 Oct 14:19:58 14:24:57 43° 63° (ENE) 14:29:57 436.925 FM
HO-68 25 Oct 14:21:39 14:25:01 14° 334° (NNW) 14:28:24 435.675 MHz FM
ISS 25 Oct 14:22:37 14:25:19 23° 154° (SSE) 14:28:02 145.800 FM
UOSAT-12 25 Oct 14:28:31 14:30:57 14° 111° (ESE) 14:33:25 437.025 FM, 437.400 FM
PCSat 25 Oct 14:31:27 14:35:13 19° 252° (WSW) 14:38:57 145.825 MHz
AO-27 25 Oct 14:32:20 14:37:34 78° 255° (WSW) 14:42:51 436.795 MHz FM
SO-50 25 Oct 14:44:30 14:49:05 88° 137° (SE) 14:53:49 436.795 FM
AO-Echo 25 Oct 14:51:36 14:56:23 48° 261° (W) 15:01:22 ?
Uosat F 25 Oct 14:59:32 15:03:17 21° 52° (NE) 15:07:02 435.120 FM
Oscar 16 25 Oct 15:01:00 15:05:14 25° 269° (W) 15:09:29 437.025 USB, Beacon 2401.1428
JAS-2 25 Oct 15:10:08 15:14:10 17° 36° (NE) 15:18:26 435.800 - 435.900 CW/SSB, 435.910 FM
Uribyol 2 25 Oct 15:20:37 15:25:22 35° 265° (W) 15:30:09 436.500 FM
ITAMSAT 1 25 Oct 15:26:52 15:31:33 33° 265° (W) 15:36:16 435.822 SSB
AO-7 25 Oct 15:37:23 15:45:33 67° 60° (ENE) 15:53:46 29.400 - 29.500 MHz
Saudisat 1A 25 Oct 15:45:35 15:50:02 89° 227° (SW) 15:54:29 436.775 MHz
Gurwin Techsat 1B 25 Oct 15:49:07 15:54:03 38° 264° (W) 15:59:02 435.225 FM
JAS-1B 25 Oct 15:51:17 15:54:50 17° 275° (W) 15:58:22 435.800 - 435.900 CW/SSB
ISS 25 Oct 15:58:21 16:01:34 45° 174° (S) 16:04:47 145.800 FM
Oscar 19 25 Oct 15:59:23 15:59:30 10° 280° (W) 15:59:37 437.125 CW, 437.150 USB
TMSAT-1 25 Oct 15:59:58 16:04:57 40° 263° (W) 16:09:58 436.925 FM
UOSAT-12 25 Oct 16:05:38 16:10:17 66° 132° (SE) 16:15:00 437.025 FM, 437.400 FM
KITSAT 1 25 Oct 16:14:39 16:22:19 44° 342° (NNW) 16:29:59 435.175 FM
AO-27 25 Oct 16:14:56 16:17:59 15° 275° (W) 16:21:02 436.795 MHz FM
SO-50 25 Oct 16:25:55 16:30:09 34° 339° (NNW) 16:34:31 436.795 FM
Uosat F 25 Oct 16:36:28 16:41:31 87° 253° (WSW) 16:46:37 435.120 FM
JAS-2 25 Oct 16:51:34 16:57:35 49° 61° (ENE) 17:04:22 435.800 - 435.900 CW/SSB, 435.910 FM
Saudisat 1A 25 Oct 17:25:57 17:29:04 19° 244° (WSW) 17:32:11 436.775 MHz
Hamsat 25 Oct 17:27:51 17:31:51 45° 68° (ENE) 17:35:52 145.90 MHz
AO-7 25 Oct 17:31:12 17:38:52 41° 263° (W) 17:46:36 29.400 - 29.500 MHz
ISS 25 Oct 17:34:49 17:37:57 38° 193° (SSW) 17:41:05 145.800 FM
UOSAT-12 25 Oct 17:46:16 17:50:44 40° 334° (NNW) 17:55:14 437.025 FM, 437.400 FM
HO-68 25 Oct 17:51:03 17:54:36 15° 27° (NNE) 17:58:10 435.675 MHz FM
SO-50 25 Oct 18:07:54 18:11:53 26° 4° (N) 18:15:57 436.795 FM
Oscar 10/S400 25 Oct 18:10:52 18:31:06 37° 172° (S) 20:08:12 145.825 - 145.975 CW/USB, Beacon 145.810 USB
KITSAT 1 25 Oct 18:12:05 18:19:38 40° 10° (N) 18:27:10 435.175 FM
OPAL 25 Oct 18:13:02 18:17:34 34° 98° (E) 18:22:03 ?
Uosat F 25 Oct 18:17:51 18:21:04 17° 273° (W) 18:24:18 435.120 FM
SO-67 25 Oct 18:19:24 18:22:05 22° 63° (ENE) 18:24:47 435.3500 MHz FM
JAS-2 25 Oct 18:36:47 18:42:44 47° 265° (W) 18:49:31 435.800 - 435.900 CW/SSB, 435.910 FM
Hamsat 25 Oct 19:04:27 19:08:01 26° 267° (W) 19:11:34 145.90 MHz
ISS 25 Oct 19:11:55 19:14:03 16° 213° (SSW) 19:16:11 145.800 FM
UOSAT-12 25 Oct 19:27:57 19:31:58 26° 358° (N) 19:35:58 437.025 FM, 437.400 FM
HO-68 25 Oct 19:34:03 19:40:25 36° 51° (NE) 19:46:49 435.675 MHz FM
SO-50 25 Oct 19:48:57 19:53:30 42° 27° (NNE) 19:58:08 436.795 FM
SO-67 25 Oct 19:51:37 19:54:53 40° 262° (W) 19:58:11 435.3500 MHz FM
OPAL 25 Oct 19:51:51 19:56:39 47° 299° (WNW) 20:01:22 ?
STRAND 1 25 Oct 19:58:09 20:03:09 46° 99° (E) 20:08:06 ?
KITSAT 1 25 Oct 20:08:19 20:16:25 68° 38° (NE) 20:24:28 435.175 FM
JAS-2 25 Oct 20:29:01 20:29:57 10° 289° (WNW) 20:30:54 435.800 - 435.900 CW/SSB, 435.910 FM
ZACube-1 25 Oct 20:38:35 20:40:46 14° 50° (NE) 20:42:57 437.345 MHz
UKube-1 25 Oct 20:40:40 20:44:16 26° 59° (ENE) 20:47:54 145.840 MHz, 145.915 MHz
UOSAT-12 25 Oct 21:08:53 21:13:16 35° 22° (NNE) 21:17:37 437.025 FM, 437.400 FM
HO-68 25 Oct 21:20:34 21:27:44 73° 254° (WSW) 21:34:58 435.675 MHz FM
Oscar 11 25 Oct 21:20:53 21:25:01 45° 67° (ENE) 21:29:09 145.825 FM, Beacon 2401.500 USB
FUNcube-1 25 Oct 21:21:10 21:24:55 26° 60° (ENE) 21:28:37 145.950 - 145.970 MHz USB
SO-50 25 Oct 21:29:34 21:34:20 63° 229° (SW) 21:39:09 436.795 FM
OPAL 25 Oct 21:32:17 21:34:28 13° 320° (NW) 21:36:39 ?
STRAND 1 25 Oct 21:37:34 21:42:17 37° 299° (WNW) 21:46:58 ?
RS-15 25 Oct 21:54:27 22:03:29 32° 106° (ESE) 22:12:30 29.354 - 29.394 USB, Beacon 29.352 USB
KITSAT 1 25 Oct 22:04:01 22:11:39 48° 242° (WSW) 22:19:15 435.175 FM
ZACube-1 25 Oct 22:11:53 22:16:24 64° 70° (ENE) 22:20:51 437.345 MHz
UKube-1 25 Oct 22:15:57 22:20:13 54° 259° (WSW) 22:24:33 145.840 MHz, 145.915 MHz
UOSAT-12 25 Oct 22:49:08 22:53:54 85° 224° (SW) 22:58:37 437.025 FM, 437.400 FM
FUNcube-1 25 Oct 22:56:34 23:01:03 56° 259° (W) 23:05:29 145.950 - 145.970 MHz USB
Oscar 11 25 Oct 22:57:40 23:01:24 28° 266° (W) 23:05:08 145.825 FM, Beacon 2401.500 USB
SO-50 25 Oct 23:11:38 23:14:04 14° 249° (WSW) 23:16:30 436.795 FM
HO-68 25 Oct 23:11:54 23:16:45 19° 276° (W) 23:21:39 435.675 MHz FM
STRAND 1 25 Oct 23:19:45 23:20:10 10° 321° (NW) 23:20:34 ?
ZACube-1 25 Oct 23:49:41 23:53:12 22° 270° (W) 23:56:41 437.345 MHz
KITSAT 1 26 Oct 00:02:18 00:05:04 12° 265° (W) 00:07:49 435.175 FM
RS-15 26 Oct 00:03:26 00:14:22 84° 133° (SE) 00:25:25 29.354 - 29.394 USB, Beacon 29.352 USB
UOSAT-12 26 Oct 00:30:06 00:33:28 19° 245° (WSW) 00:36:47 437.025 FM, 437.400 FM
MaSat-1 26 Oct 00:37:02 00:40:51 50° 121° (ESE) 00:44:16 437.345 MHz
